Location: Azul
(36.7830°S, 59.8500°W)
Time: 12:30:02
(UTC-03:00)

ISS - Pass Details

Date: 16 February 2018
Orbit: 403 x 406 km, 51.6° (Epoch: 26 February)

Event Time Altitude Azimuth Distance (km) Brightness Sun altitude
Exits shadow 04:10:47 - 203° (SSW) 1,880 -0.3 -25.6°
Reaches altitude 10° 04:12:39 10° 179° (S) 1,499 -0.5 -25.3°
Maximum altitude 04:13:41 11° 161° (SSE) 1,434 -0.3 -25.2°
Drops below altitude 10° 04:14:43 10° 143° (SE) 1,496 0.0 -25.0°
Sets 04:18:10 0° 105° (ESE) 2,352 1.1 -24.5°
